JAL2909 RJSS-RJCC

Flight info

Callsign JAL2909
Flight time 0h 59m
Altitude 25000
Route SAMBO Y119 OHMAR Y13 SIRAO Y139 NAVER
Aircraft E170/M-SDE3GILORVW/S

Departure

Time 2026-04-14 12:07
Airport Sendai Airport (RJSS)

Arrival

Time 2026-04-14 13:06
Airport New Chitose Airport (RJCC)
Time Latitude Longitude Altitude Speed Heading
2026-04-14 11:44 38.13876 140.92794 10 ft 0 kts 172°
2026-04-14 12:01 38.13882 140.92793 10 ft 2 kts 172°
2026-04-14 12:01 38.13898 140.92790 11 ft 2 kts 172°
2026-04-14 12:01 38.13914 140.92787 12 ft 2 kts 172°
2026-04-14 12:01 38.13930 140.92784 10 ft 2 kts 162°
2026-04-14 12:02 38.13943 140.92772 10 ft 2 kts 121°
2026-04-14 12:02 38.13945 140.92759 13 ft 0 kts 85°
2026-04-14 12:04 38.13946 140.92761 10 ft 1 kts 83°
2026-04-14 12:04 38.13953 140.92778 10 ft 4 kts 53°
2026-04-14 12:04 38.13978 140.92816 10 ft 7 kts 47°
2026-04-14 12:04 38.14013 140.92882 11 ft 11 kts 69°
2026-04-14 12:05 38.14029 140.92988 11 ft 14 kts 83°
2026-04-14 12:05 38.14043 140.93125 10 ft 17 kts 82°
2026-04-14 12:05 38.14063 140.93248 11 ft 15 kts 57°
2026-04-14 12:05 38.14159 140.93273 13 ft 15 kts 352°
2026-04-14 12:06 38.14219 140.93189 14 ft 12 kts 265°
2026-04-14 12:06 38.14218 140.93176 14 ft 0 kts 263°
2026-04-14 12:06 38.14207 140.93072 14 ft 40 kts 262°
2026-04-14 12:06 38.14133 140.92363 18 ft 119 kts 263°
2026-04-14 12:07 38.13996 140.91055 171 ft 169 kts 262°
2026-04-14 12:07 38.13784 140.89499 826 ft 189 kts 254°
2026-04-14 12:07 38.13139 140.88012 1638 ft 195 kts 226°
2026-04-14 12:07 38.12049 140.87084 2450 ft 191 kts 201°
2026-04-14 12:08 38.10759 140.86722 3262 ft 191 kts 183°
2026-04-14 12:08 38.09427 140.86937 3976 ft 197 kts 165°
2026-04-14 12:08 38.08190 140.87754 4652 ft 206 kts 144°
2026-04-14 12:08 38.07240 140.89212 5135 ft 226 kts 117°
2026-04-14 12:09 38.06789 140.91173 5784 ft 236 kts 103°
2026-04-14 12:09 38.06538 140.93253 6468 ft 241 kts 99°
2026-04-14 12:09 38.06312 140.95387 7116 ft 249 kts 98°
2026-04-14 12:09 38.06106 140.97670 7575 ft 270 kts 96°
2026-04-14 12:10 38.05908 141.00114 8118 ft 286 kts 101°
2026-04-14 12:10 38.05405 141.02593 8793 ft 293 kts 108°
2026-04-14 12:10 38.04789 141.05087 9545 ft 299 kts 108°
2026-04-14 12:10 38.04177 141.07636 10208 ft 307 kts 107°
2026-04-14 12:11 38.03536 141.10325 10439 ft 328 kts 107°
2026-04-14 12:11 38.02860 141.13179 10690 ft 347 kts 107°
2026-04-14 12:11 38.02157 141.16161 11123 ft 356 kts 107°
2026-04-14 12:11 38.01446 141.19188 11733 ft 360 kts 107°
2026-04-14 12:12 38.00728 141.22246 12417 ft 363 kts 107°
2026-04-14 12:12 38.00012 141.25290 13107 ft 366 kts 107°
2026-04-14 12:12 37.99279 141.28401 13800 ft 370 kts 107°
2026-04-14 12:12 37.98537 141.31544 14437 ft 374 kts 107°
2026-04-14 12:13 37.97786 141.34723 15054 ft 379 kts 107°
2026-04-14 12:13 37.97024 141.37937 15699 ft 383 kts 108°
2026-04-14 12:13 37.96253 141.41183 16345 ft 387 kts 108°
2026-04-14 12:13 37.95470 141.44465 16976 ft 391 kts 108°
2026-04-14 12:14 37.94679 141.47785 17626 ft 396 kts 108°
2026-04-14 12:14 37.93952 141.51169 18241 ft 401 kts 99°
2026-04-14 12:14 37.94051 141.54701 18816 ft 406 kts 75°
2026-04-14 12:14 37.95244 141.57926 19425 ft 406 kts 51°
2026-04-14 12:15 37.97325 141.60295 20063 ft 402 kts 26°
2026-04-14 12:15 37.99928 141.61457 20727 ft 396 kts
2026-04-14 12:15 38.02654 141.61889 21360 ft 397 kts
2026-04-14 12:15 38.05412 141.62329 21951 ft 402 kts
2026-04-14 12:16 38.08204 141.62865 22540 ft 407 kts
2026-04-14 12:16 38.10976 141.63431 23103 ft 411 kts
2026-04-14 12:16 38.13810 141.64031 23655 ft 415 kts
2026-04-14 12:16 38.16667 141.64637 24109 ft 418 kts
2026-04-14 12:17 38.19550 141.65248 24548 ft 421 kts
2026-04-14 12:17 38.22447 141.65853 24975 ft 424 kts
2026-04-14 12:17 38.25341 141.66442 25163 ft 413 kts
2026-04-14 12:17 38.28107 141.66935 25120 ft 389 kts
2026-04-14 12:18 38.30717 141.67393 25137 ft 369 kts
2026-04-14 12:18 38.33234 141.67835 25147 ft 361 kts 359°
2026-04-14 12:18 38.35721 141.68262 25111 ft 361 kts 359°
2026-04-14 12:18 38.38220 141.68689 25148 ft 369 kts 360°
2026-04-14 12:19 38.40838 141.69132 25200 ft 390 kts
2026-04-14 12:19 38.43598 141.69604 25256 ft 409 kts
2026-04-14 12:19 38.46469 141.70099 25259 ft 423 kts
2026-04-14 12:19 38.49414 141.70607 25105 ft 427 kts
2026-04-14 12:20 38.52375 141.70989 25116 ft 424 kts 352°
2026-04-14 12:20 38.55205 141.70264 25128 ft 408 kts 332°
2026-04-14 12:20 38.57772 141.68749 25103 ft 408 kts 329°
2026-04-14 12:20 38.60377 141.67286 25113 ft 410 kts 331°
2026-04-14 12:21 38.63022 141.65892 25125 ft 411 kts 332°
2026-04-14 12:21 38.65642 141.64546 25118 ft 411 kts 332°
2026-04-14 12:21 38.68299 141.63196 25122 ft 411 kts 332°
2026-04-14 12:21 38.70965 141.61850 25116 ft 412 kts 332°
2026-04-14 12:22 38.73633 141.60507 25120 ft 412 kts 332°
2026-04-14 12:22 38.76297 141.59168 25123 ft 412 kts 332°
2026-04-14 12:22 38.78968 141.57828 25115 ft 411 kts 332°
2026-04-14 12:22 38.81631 141.56493 25122 ft 411 kts 332°
2026-04-14 12:23 38.84298 141.55156 25119 ft 411 kts 332°
2026-04-14 12:23 38.86964 141.53820 25118 ft 411 kts 332°
2026-04-14 12:23 38.89630 141.52482 25110 ft 411 kts 332°
2026-04-14 12:23 38.92300 141.51140 25111 ft 411 kts 332°
2026-04-14 12:24 38.94931 141.49819 25110 ft 411 kts 332°
2026-04-14 12:24 38.97590 141.48481 25109 ft 410 kts 332°
2026-04-14 12:24 39.00250 141.47144 25111 ft 410 kts 332°
2026-04-14 12:24 39.02905 141.45806 25119 ft 410 kts 332°
2026-04-14 12:25 39.05558 141.44466 25121 ft 410 kts 332°
2026-04-14 12:25 39.08216 141.43124 25114 ft 410 kts 332°
2026-04-14 12:25 39.10867 141.41785 25128 ft 410 kts 332°
2026-04-14 12:25 39.13522 141.40445 25125 ft 410 kts 332°
2026-04-14 12:26 39.16175 141.39104 25121 ft 409 kts 332°
2026-04-14 12:26 39.18826 141.37762 25124 ft 409 kts 332°
2026-04-14 12:26 39.21473 141.36422 25123 ft 409 kts 332°
2026-04-14 12:26 39.24119 141.35079 25121 ft 409 kts 332°
2026-04-14 12:27 39.26764 141.33738 25119 ft 408 kts 332°
2026-04-14 12:27 39.29406 141.32397 25121 ft 408 kts 332°
2026-04-14 12:27 39.32047 141.31055 25117 ft 408 kts 332°
2026-04-14 12:27 39.34689 141.29712 25116 ft 408 kts 332°
2026-04-14 12:28 39.37332 141.28369 25124 ft 408 kts 332°
2026-04-14 12:28 39.39975 141.27021 25126 ft 408 kts 332°
2026-04-14 12:28 39.42617 141.25672 25121 ft 408 kts 332°
2026-04-14 12:28 39.45281 141.24386 25128 ft 411 kts 335°
2026-04-14 12:29 39.48034 141.23332 25123 ft 413 kts 337°
2026-04-14 12:29 39.50785 141.22278 25120 ft 412 kts 336°
2026-04-14 12:29 39.53533 141.21209 25116 ft 412 kts 336°
2026-04-14 12:29 39.56269 141.20136 25118 ft 412 kts 336°
2026-04-14 12:30 39.58976 141.19065 25118 ft 412 kts 336°
2026-04-14 12:30 39.61712 141.17982 25117 ft 412 kts 336°
2026-04-14 12:30 39.64447 141.16894 25115 ft 411 kts 336°
2026-04-14 12:30 39.67185 141.15803 25112 ft 412 kts 336°
2026-04-14 12:31 39.69925 141.14709 25113 ft 411 kts 336°
2026-04-14 12:31 39.72660 141.13615 25110 ft 411 kts 336°
2026-04-14 12:31 39.75393 141.12521 25110 ft 411 kts 336°
2026-04-14 12:31 39.78129 141.11425 25112 ft 411 kts 336°
2026-04-14 12:32 39.80868 141.10329 25109 ft 411 kts 336°
2026-04-14 12:32 39.83599 141.09233 25108 ft 411 kts 336°
2026-04-14 12:32 39.86339 141.08132 25110 ft 411 kts 336°
2026-04-14 12:32 39.89075 141.07033 25107 ft 411 kts 336°
2026-04-14 12:33 39.91811 141.05932 25110 ft 411 kts 336°
2026-04-14 12:33 39.94541 141.04832 25107 ft 411 kts 336°
2026-04-14 12:33 39.97273 141.03730 25106 ft 411 kts 336°
2026-04-14 12:33 40.00007 141.02627 25106 ft 411 kts 336°
2026-04-14 12:34 40.02739 141.01523 25109 ft 411 kts 336°
2026-04-14 12:34 40.05467 141.00420 25107 ft 411 kts 336°
2026-04-14 12:34 40.08254 140.99501 25127 ft 420 kts 346°
2026-04-14 12:34 40.11224 140.99790 25136 ft 439 kts
2026-04-14 12:35 40.14186 141.00872 25149 ft 442 kts
2026-04-14 12:35 40.17153 141.01853 25110 ft 438 kts
2026-04-14 12:35 40.20133 141.02713 25095 ft 438 kts
2026-04-14 12:35 40.23075 141.03521 25103 ft 437 kts
2026-04-14 12:36 40.26053 141.04313 25095 ft 436 kts
2026-04-14 12:36 40.29032 141.05081 25097 ft 436 kts
2026-04-14 12:36 40.32016 141.05850 25103 ft 436 kts
2026-04-14 12:36 40.34990 141.06601 25096 ft 436 kts
2026-04-14 12:37 40.37968 141.07358 25106 ft 436 kts
2026-04-14 12:37 40.40950 141.08110 25112 ft 436 kts
2026-04-14 12:37 40.43933 141.08863 25111 ft 436 kts
2026-04-14 12:37 40.46916 141.09615 25111 ft 436 kts
2026-04-14 12:38 40.52877 141.11121 25111 ft 435 kts
2026-04-14 12:38 40.55824 141.11868 25110 ft 436 kts
2026-04-14 12:38 40.58801 141.12620 25113 ft 435 kts
2026-04-14 12:39 40.61779 141.13373 25109 ft 436 kts
2026-04-14 12:39 40.64757 141.14129 25101 ft 436 kts
2026-04-14 12:39 40.67734 141.14883 25104 ft 435 kts
2026-04-14 12:39 40.70708 141.15638 25103 ft 436 kts
2026-04-14 12:40 40.73689 141.16394 25103 ft 436 kts
2026-04-14 12:40 40.76659 141.17149 25111 ft 435 kts
2026-04-14 12:40 40.79633 141.17908 25103 ft 435 kts
2026-04-14 12:40 40.82605 141.18664 25102 ft 435 kts
2026-04-14 12:41 40.85577 141.19423 25106 ft 435 kts
2026-04-14 12:41 40.88549 141.20180 25102 ft 435 kts
2026-04-14 12:41 40.90517 141.20684 25119 ft 434 kts
2026-04-14 12:41 40.93483 141.21442 25114 ft 434 kts
2026-04-14 12:42 40.96451 141.22201 25110 ft 434 kts
2026-04-14 12:42 40.99421 141.22962 25111 ft 434 kts
2026-04-14 12:42 41.02387 141.23720 25112 ft 434 kts
2026-04-14 12:42 41.05348 141.24478 25113 ft 434 kts
2026-04-14 12:43 41.08312 141.25241 25111 ft 434 kts
2026-04-14 12:43 41.11272 141.26001 25112 ft 434 kts
2026-04-14 12:43 41.14234 141.26763 25110 ft 434 kts
2026-04-14 12:43 41.17192 141.27527 25115 ft 433 kts
2026-04-14 12:44 41.20149 141.28288 25118 ft 433 kts
2026-04-14 12:44 41.23105 141.29051 25116 ft 433 kts
2026-04-14 12:44 41.26067 141.29816 25021 ft 433 kts
2026-04-14 12:45 41.31930 141.31344 23831 ft 427 kts
2026-04-14 12:45 41.34823 141.32102 23195 ft 421 kts
2026-04-14 12:45 41.37677 141.32848 22569 ft 415 kts
2026-04-14 12:45 41.40497 141.33584 21981 ft 411 kts
2026-04-14 12:46 41.43291 141.34312 21421 ft 408 kts
2026-04-14 12:46 41.46072 141.35037 20874 ft 405 kts
2026-04-14 12:46 41.48824 141.35754 20341 ft 402 kts
2026-04-14 12:46 41.51568 141.36470 19821 ft 399 kts
2026-04-14 12:47 41.54285 141.37178 19312 ft 397 kts
2026-04-14 12:47 41.56986 141.37883 18813 ft 394 kts
2026-04-14 12:47 41.59673 141.38583 18311 ft 392 kts
2026-04-14 12:47 41.62347 141.39282 17752 ft 390 kts
2026-04-14 12:48 41.65000 141.39975 17196 ft 386 kts
2026-04-14 12:48 41.67629 141.40663 16681 ft 383 kts
2026-04-14 12:48 41.70235 141.41344 16155 ft 380 kts
2026-04-14 12:48 41.72781 141.42009 15659 ft 376 kts
2026-04-14 12:49 41.75375 141.42687 15158 ft 374 kts
2026-04-14 12:49 41.77913 141.43352 14679 ft 370 kts
2026-04-14 12:49 41.80426 141.44010 14211 ft 368 kts
2026-04-14 12:49 41.82945 141.44666 13733 ft 368 kts
2026-04-14 12:50 41.85454 141.45322 13220 ft 367 kts
2026-04-14 12:50 41.90391 141.46619 12211 ft 353 kts
2026-04-14 12:50 41.92776 141.47245 11882 ft 346 kts
2026-04-14 12:51 41.95132 141.47861 11575 ft 342 kts
2026-04-14 12:51 41.97439 141.48468 11263 ft 335 kts
2026-04-14 12:51 41.99713 141.49080 10978 ft 332 kts
2026-04-14 12:51 42.01815 141.50385 11030 ft 340 kts 28°
2026-04-14 12:52 42.03791 141.52191 10680 ft 343 kts 31°
2026-04-14 12:52 42.05710 141.53976 10396 ft 328 kts 30°
2026-04-14 12:52 42.07549 141.55682 10109 ft 315 kts 31°
2026-04-14 12:52 42.09322 141.57323 9825 ft 305 kts 30°
2026-04-14 12:53 42.11052 141.58921 9424 ft 301 kts 30°
2026-04-14 12:53 42.12813 141.60408 9002 ft 295 kts 25°
2026-04-14 12:53 42.14607 141.61727 8597 ft 292 kts 24°
2026-04-14 12:53 42.16377 141.63024 8209 ft 288 kts 24°
2026-04-14 12:54 42.18136 141.64307 7827 ft 286 kts 24°
2026-04-14 12:54 42.19855 141.65558 7460 ft 283 kts 24°
2026-04-14 12:54 42.21587 141.66811 7097 ft 281 kts 24°
2026-04-14 12:54 42.23307 141.68050 6738 ft 279 kts 24°
2026-04-14 12:55 42.25016 141.69275 6370 ft 276 kts 24°
2026-04-14 12:55 42.26698 141.70478 6058 ft 270 kts 24°
2026-04-14 12:55 42.28323 141.71640 6016 ft 259 kts 24°
2026-04-14 12:55 42.29891 141.72766 6004 ft 253 kts 24°
2026-04-14 12:56 42.31448 141.73884 6013 ft 254 kts 24°
2026-04-14 12:56 42.33008 141.75004 6013 ft 255 kts 24°
2026-04-14 12:56 42.34575 141.76130 6013 ft 252 kts 24°
2026-04-14 12:56 42.36094 141.77225 5994 ft 242 kts 24°
2026-04-14 12:57 42.37560 141.78285 6000 ft 237 kts 24°
2026-04-14 12:57 42.39028 141.79347 5649 ft 238 kts 24°
2026-04-14 12:57 42.40476 141.80393 5306 ft 234 kts 24°
2026-04-14 12:57 42.41917 141.81410 4971 ft 230 kts 20°
2026-04-14 12:58 42.43437 141.81732 4602 ft 218 kts 346°
2026-04-14 12:58 42.44757 141.80870 4305 ft 209 kts 320°
2026-04-14 12:58 42.45917 141.79670 4055 ft 211 kts 320°
2026-04-14 12:58 42.47091 141.78465 3787 ft 212 kts 320°
2026-04-14 12:59 42.48257 141.77244 3511 ft 211 kts 316°
2026-04-14 12:59 42.49215 141.75777 3095 ft 214 kts 309°
2026-04-14 12:59 42.50380 141.74524 2884 ft 205 kts 330°
2026-04-14 12:59 42.51782 141.74033 2889 ft 213 kts 349°
2026-04-14 13:00 42.53241 141.73712 2883 ft 209 kts 349°
2026-04-14 13:00 42.54648 141.73438 2853 ft 197 kts 351°
2026-04-14 13:00 42.55953 141.73207 2839 ft 185 kts 351°
2026-04-14 13:00 42.57238 141.72982 2852 ft 187 kts 351°
2026-04-14 13:01 42.58535 141.72756 2868 ft 189 kts 351°
2026-04-14 13:01 42.59838 141.72528 2880 ft 189 kts 351°
2026-04-14 13:01 42.61149 141.72297 2890 ft 190 kts 351°
2026-04-14 13:01 42.62457 141.72067 2893 ft 186 kts 351°
2026-04-14 13:02 42.63728 141.71856 2655 ft 184 kts 351°
2026-04-14 13:02 42.64995 141.71623 2358 ft 181 kts 351°
2026-04-14 13:02 42.66206 141.71406 2121 ft 174 kts 352°
2026-04-14 13:02 42.67391 141.71196 1876 ft 169 kts 352°
2026-04-14 13:03 42.68529 141.70997 1633 ft 161 kts 352°
2026-04-14 13:03 42.69633 141.70804 1418 ft 159 kts 353°
2026-04-14 13:03 42.70691 141.70618 1196 ft 144 kts 353°
2026-04-14 13:03 42.71631 141.70453 1070 ft 130 kts 352°
2026-04-14 13:04 42.72523 141.70286 878 ft 130 kts 353°
2026-04-14 13:04 42.73406 141.70140 657 ft 130 kts 353°
2026-04-14 13:04 42.74293 141.69987 463 ft 128 kts 353°
2026-04-14 13:04 42.75167 141.69832 308 ft 125 kts 352°
2026-04-14 13:05 42.76038 141.69679 172 ft 127 kts 353°
2026-04-14 13:05 42.76874 141.69529 65 ft 107 kts 354°
2026-04-14 13:05 42.77479 141.69420 60 ft 65 kts 353°
2026-04-14 13:05 42.77897 141.69348 60 ft 61 kts 353°
2026-04-14 13:06 42.78261 141.69228 67 ft 50 kts 328°
2026-04-14 13:06 42.78443 141.69018 67 ft 21 kts 281°
2026-04-14 13:06 42.78434 141.68878 62 ft 14 kts 264°
2026-04-14 13:06 42.78424 141.68760 65 ft 11 kts 262°
2026-04-14 13:07 42.78417 141.68690 61 ft 4 kts 263°
2026-04-14 13:07 42.78412 141.68628 66 ft 8 kts 263°
2026-04-14 13:07 42.78411 141.68535 62 ft 12 kts 287°
2026-04-14 13:07 42.78439 141.68448 64 ft 10 kts 303°
2026-04-14 13:08 42.78488 141.68360 66 ft 13 kts 311°
2026-04-14 13:08 42.78543 141.68264 63 ft 11 kts 304°
2026-04-14 13:08 42.78574 141.68202 66 ft 1 kts 303°